Location: Fauquembergues
(50.6005°N, 2.0987°E)
Time: 03:46:30
(UTC+00:00)

Cosmos 405 Rocket - Pass Details

Date: 14 July 2020
Orbit: 489 x 555 km, 81.3° (Epoch: 06 August)

Event Time Altitude Azimuth Distance (km) Brightness Sun altitude
Exits shadow 00:52:58 25° 144° (SE) 1,072 3.9 -16.7°
Maximum altitude 00:54:36 38° 95° (E) 797 3.7 -16.7°
Drops below altitude 10° 00:58:06 10° 27° (NNE) 1,722 6.6 -16.5°
Sets 01:00:18 0° 19° (NNE) 2,602 8.1 -16.5°
